Wind_Speed
6 10 10 3 4 4 1 3 2 4 2 1 2 3 4 3 2 2 8 9 21 20 17 14 14 11 12 11 11 11 11 11 11 11 10 10 9 9 10 12 13 11 12 12 12 12 12 13 13
5 10 3 2 4 2 2 2 5 4 5 7 4 2 4 2 2 6 11 18 22 20 17 15 13 12 12 11 12 10 8 9 10 9 8 8 7 9 9 8 11 12 11 11 12 11 10 10 10
5 3 3 4 3 3 4 4 5 4 7 2 3 3 2 4 3 13 8 23 22 20 17 15 13 12 11 11 12 11 8 7 8 9 8 8 7 7 8 9 8 10 8 9 10 10 8 7 7
4 4 4 4 3 2 2 5 5 8 1 2 4 6 1 1 8 7 20 24 21 19 17 15 13 12 11 10 11 12 8 7 8 8 7 6 6 6 6 4 7 9 8 6 8 7 7 10 7
4 3 4 4 2 1 1 5 7 5 5 3 2 4 2 2 3 18 22 23 21 20 17 15 13 11 10 10 10 10 10 7 5 5 5 5 4 5 5 4 5 5 5 4 4 6 4 6 5
3 3 4 3 3 0 2 6 6 2 3 4 4 5 4 3 13 20 21 21 19 19 17 15 12 11 9 8 9 9 9 9 5 5 3 3 3 2 4 3 3 3 1 2 3 4 4 0 0
5 3 5 5 6 3 5 6 6 5 5 4 7 5 1 5 19 19 20 20 18 17 15 15 14 11 10 9 8 7 7 7 6 6 6 4 3 3 2 2 2 1 1 1 3 5 4 3 3
4 4 4 3 6 5 5 5 6 5 3 3 3 4 5 7 23 19 18 18 17 16 14 14 14 13 12 11 8 7 6 6 5 5 4 5 5 4 4 3 2 2 1 1 2 3 4 4 5
2 4 3 7 7 5 6 4 1 3 6 1 2 4 2 24 23 20 17 17 18 17 16 13 14 14 12 11 10 8 7 6 5 4 5 5 5 6 6 5 4 4 4 5 5 5 5 6 6
4 3 8 5 5 5 6 5 8 5 3 1 1 1 13 25 24 19 17 18 20 20 18 15 14 13 13 12 11 10 9 8 6 6 5 7 7 6 7 7 7 6 7 7 7 8 8 8 8
3 2 2 0 1 4 7 4 2 10 3 6 7 7 13 18 22 20 19 21 21 19 17 15 13 12 12 11 10 10 10 9 9 9 8 5 5 6 7 7 7 7 8 9 9 10 10 10 10
3 3 2 4 2 4 8 8 5 4 5 2 6 12 17 14 17 20 22 22 19 17 16 15 14 14 12 12 11 10 10 10 10 9 9 8 7 6 6 6 5 6 7 8 9 10 10 11 11
2 1 4 3 6 2 5 3 5 7 1 3 12 11 11 14 15 20 22 20 18 18 16 16 15 15 15 14 13 13 12 12 11 12 11 11 10 8 8 8 6 7 7 9 9 9 10 11 12
1 2 1 4 3 3 3 1 4 3 3 6 11 12 9 13 17 17 20 22 21 19 18 16 17 16 16 16 15 15 14 14 14 14 14 14 14 13 11 10 9 9 9 10 9 11 11 12 12
0 2 2 5 2 2 1 1 5 1 3 6 7 7 7 10 14 23 24 25 23 21 19 19 19 18 19 19 18 17 17 17 19 18 18 17 17 16 13 14 13 12 13 11 11 12 13 14 14
4 5 1 2 0 2 3 6 3 2 5 6 6 5 6 7 15 20 21 21 22 21 21 21 22 22 22 22 20 19 19 19 20 21 21 21 20 17 15 15 16 15 13 13 13 11 15 16 16
6 3 2 4 2 1 2 6 1 2 4 5 6 7 7 5 10 21 24 23 22 22 22 22 21 22 21 21 19 17 16 16 17 18 20 21 22 20 18 16 15 12 11 11 9 12 14 17 18
6 4 3 5 3 3 2 6 3 1 2 5 5 6 7 7 14 24 25 23 22 22 22 23 22 20 18 17 16 15 16 16 17 17 18 17 18 19 19 17 13 9 9 6 6 10 14 14 14
5 4 5 3 2 1 3 5 11 3 3 6 8 7 7 11 17 23 23 22 21 23 23 25 24 22 20 17 15 14 14 13 13 13 14 15 15 15 16 16 14 13 9 5 7 10 13 14 13
5 5 3 1 3 2 4 8 10 4 5 7 9 9 11 7 10 17 21 21 27 27 28 26 26 24 20 17 13 10 9 9 9 9 9 9 11 11 12 13 13 11 8 7 9 11 10 7 6
1 5 4 2 1 3 3 6 6 4 3 4 8 12 9 14 14 10 17 23 23 27 28 28 26 23 20 16 13 11 9 8 8 8 8 8 9 11 12 13 12 9 8 8 9 9 7 5 8
5 6 6 5 4 4 2 6 5 6 6 6 11 10 14 14 10 9 13 19 27 28 26 25 24 22 20 17 15 15 15 13 11 11 10 9 9 10 10 9 9 7 7 6 6 5 6 6 7
3 5 7 3 4 2 3 3 6 3 6 11 11 11 13 9 7 9 16 27 31 28 26 26 24 22 19 16 14 14 15 14 12 13 11 10 9 8 8 7 7 6 6 5 5 5 6 7 7
9 7 7 5 3 2 7 6 4 5 7 6 5 5 6 7 6 9 17 19 23 21 26 24 22 19 16 13 13 14 18 17 17 17 15 12 10 9 8 6 5 5 4 4 4 4 4 5 6
3 6 2 2 1 5 1 4 11 4 9 11 9 5 7 7 7 7 7 11 14 17 25 23 20 17 14 13 12 12 16 19 19 18 17 15 13 10 8 6 5 4 3 2 2 3 4 4 4
5 5 5 7 5 2 2 7 6 8 9 9 7 7 7 7 7 7 8 9 11 16 22 22 21 19 15 12 13 13 14 16 17 16 16 14 11 10 8 6 5 3 2 2 3 4 4 4 3
6 6 5 6 3 2 4 7 9 7 12 7 8 5 7 7 6 6 4 6 10 16 23 21 18 15 14 13 13 15 16 16 17 16 15 13 11 9 8 6 5 4 3 3 3 3 3 2 2
6 9 3 2 2 4 4 5 6 4 5 6 6 6 7 6 6 4 3 7 9 14 20 18 17 16 15 14 14 13 13 14 14 14 13 12 11 9 8 6 5 4 3 3 3 2 2 2 2
3 3 2 5 5 5 1 5 6 5 4 6 7 7 6 7 7 5 4 5 9 14 20 21 20 19 18 17 17 17 16 16 15 14 13 13 11 10 9 8 7 5 4 4 4 3 4 3 3
2 5 5 4 4 3 2 7 5 7 5 5 5 3 3 3 4 3 6 7 12 17 20 23 21 21 20 20 20 18 17 17 16 15 14 13 12 11 10 9 8 7 6 6 6 6 6 6 6
Wind_Direction
5 141 138 70 65 66 117 169 123 125 145 152 95 155 156 62 134 154 155 148 153 153 154 154 145 148 147 146 128 110 108 124 120 115 109 103 95 85 89 92 86 86 89 90 86 83 76 73 69
119 138 98 84 89 93 241 218 153 161 135 128 87 74 63 87 103 126 138 155 155 153 156 158 153 152 149 145 140 133 127 111 122 124 118 113 105 93 99 97 96 89 93 84 78 76 75 71 69
126 155 88 94 105 167 170 197 146 111 142 128 103 48 108 132 112 155 151 157 157 155 159 158 153 149 147 149 150 138 138 119 117 121 113 105 111 106 102 97 94 83 90 82 72 65 68 67 69
164 36 44 86 140 224 161 163 135 132 208 103 127 77 46 304 153 184 155 158 158 158 161 160 156 153 146 141 150 156 149 111 113 124 122 109 107 95 114 107 106 100 94 71 59 50 62 75 59
64 60 70 80 121 263 293 135 142 140 133 123 148 148 76 111 151 152 155 163 162 161 163 164 163 162 154 145 145 152 146 130 116 108 128 133 121 96 100 120 114 121 105 79 39 32 59 89 68
58 93 82 160 162 170 88 152 137 104 130 140 102 117 159 182 156 158 160 166 168 165 168 171 171 169 166 157 153 154 154 159 152 158 140 142 149 124 96 108 140 162 220 312 8 16 29 38 126
105 84 156 137 150 144 172 157 152 142 138 198 153 118 179 182 166 161 163 165 171 172 172 178 181 179 179 176 171 165 165 170 180 185 200 196 192 190 171 135 123 144 182 344 356 15 16 3 313
102 91 116 168 174 184 180 143 145 137 162 108 160 171 175 186 166 162 165 170 175 180 182 184 189 191 191 191 190 185 185 187 190 197 213 223 227 225 224 225 207 206 204 251 313 341 352 353 342
107 73 156 176 168 173 171 132 209 93 118 180 177 163 199 157 161 160 166 179 184 188 191 194 197 201 204 205 204 203 207 211 216 231 237 239 245 246 236 242 243 247 256 267 280 297 310 312 315
68 106 195 180 168 165 171 148 153 125 116 193 173 99 149 158 167 167 171 178 189 193 195 200 199 203 207 212 216 218 216 216 211 242 264 254 253 253 245 247 251 256 265 275 282 285 289 295 305
357 119 167 96 190 142 147 118 129 123 210 213 197 163 156 163 175 183 189 190 193 196 198 200 202 202 207 210 215 219 223 222 220 225 246 265 263 258 259 260 262 272 279 281 291 287 286 293 298
91 20 34 6 334 148 166 132 133 175 193 185 204 161 160 173 186 189 195 198 200 204 209 208 208 212 214 216 221 226 233 237 239 242 245 253 259 258 257 271 278 284 295 297 301 297 292 290 294
73 358 48 31 55 66 121 112 168 203 216 123 134 145 176 182 195 203 203 206 207 214 216 219 220 221 222 224 227 231 235 239 247 248 249 251 256 264 256 255 257 274 283 294 296 300 297 296 300
356 81 85 45 49 63 106 96 146 213 117 130 151 170 181 193 197 203 209 211 213 219 220 221 226 228 229 232 235 241 247 251 251 250 252 253 255 255 257 261 266 271 272 270 286 290 289 294 295
120 101 43 29 6 84 155 100 230 35 135 165 183 178 187 205 200 212 213 216 217 223 225 226 230 231 234 236 241 246 253 258 259 259 256 255 255 256 264 266 263 268 273 277 272 278 279 279 283
61 50 79 306 192 339 108 244 178 154 143 194 204 205 209 218 222 228 227 230 228 233 237 239 238 238 238 236 238 245 254 260 264 263 259 255 254 254 254 259 263 268 260 265 270 280 287 279 276
24 158 189 316 326 137 119 235 151 144 159 203 212 221 223 245 241 232 233 236 235 236 242 244 234 231 231 230 233 238 248 259 265 265 262 257 252 250 248 248 259 263 254 258 269 276 276 280 283
172 172 219 208 348 45 83 255 228 75 198 246 257 247 242 235 240 233 236 239 242 241 238 231 225 219 215 217 226 241 256 264 265 261 258 255 250 245 242 242 246 245 255 252 280 294 297 290 296
123 122 168 240 355 169 226 260 269 326 290 262 251 247 247 247 252 243 241 243 241 236 230 224 218 215 217 220 229 245 257 263 261 257 253 249 246 241 236 231 231 233 222 265 284 292 293 292 291
140 140 190 28 14 99 7 276 270 241 240 223 239 244 241 247 258 248 242 239 233 234 228 222 220 218 220 224 231 238 250 254 247 243 239 233 226 221 213 204 204 213 227 240 279 282 279 296 333
102 160 168 162 67 59 329 277 254 273 249 250 256 245 247 237 248 253 242 240 238 235 229 223 219 217 220 224 224 224 227 229 216 208 209 203 198 195 192 193 201 215 237 245 262 266 278 273 291
192 180 148 138 105 237 5 279 279 266 273 265 255 247 248 246 248 250 248 245 243 240 229 221 216 215 217 220 223 225 224 215 215 202 193 184 184 187 189 195 203 217 232 240 250 254 240 253 263
220 149 149 129 109 91 339 307 272 359 298 261 251 245 250 254 241 254 249 251 256 243 223 214 212 214 216 221 225 224 220 217 206 192 183 176 175 178 183 192 206 224 237 246 252 255 253 255 260
141 93 52 53 76 313 191 174 224 189 211 273 249 243 269 280 263 261 274 269 254 241 215 208 208 211 214 219 224 223 217 206 192 186 183 178 176 179 186 195 211 226 233 243 262 276 282 279 275
103 104 40 16 6 231 348 172 260 259 235 231 259 297 288 282 285 272 279 263 248 224 203 200 201 205 209 212 213 214 212 207 200 192 189 186 187 191 195 194 196 203 215 247 284 297 304 303 287
182 155 161 193 197 219 88 232 254 236 286 275 279 278 285 277 268 274 288 262 232 217 202 199 199 201 202 200 200 196 195 195 195 196 196 199 201 194 189 189 193 200 227 265 284 289 295 300 296
193 207 154 106 44 49 213 282 285 274 276 277 279 312 289 300 307 295 273 232 216 207 202 201 200 200 200 198 196 191 191 194 197 198 198 196 192 193 198 203 208 215 229 251 268 276 281 279 276
160 152 96 13 139 258 265 272 236 271 240 301 330 292 297 324 318 300 242 214 211 210 201 199 204 207 204 201 198 194 190 189 192 194 195 195 200 205 211 211 211 224 236 244 243 241 232 215 201
143 173 143 131 157 186 248 257 214 227 255 265 293 285 288 302 302 289 253 227 210 201 199 202 205 206 206 205 202 201 198 197 198 201 203 206 211 213 212 216 220 226 233 233 225 209 199 191 167
313 192 162 145 223 221 171 259 197 208 216 181 270 230 256 289 277 293 265 218 202 204 205 209 210 212 213 212 211 209 206 205 206 208 211 213 213 213 218 221 219 218 220 219 211 201 188 181 168
Height
794 794 796 798 822 833 849 843 835 841 841 839 838 840 841 846 847 857 849 849 851 856 859 862 864 865 866 868 870 871 872 873 875 876 877 878 878 878 878 879 879 880 880 881 881 881 881 881 880
793 795 797 807 833 846 847 839 840 837 838 839 839 841 843 850 846 848 850 850 852 855 859 861 863 865 867 868 870 872 873 874 875 876 877 878 879 879 880 880 880 881 882 882 882 882 882 882 882
794 795 801 822 842 842 844 837 835 837 838 838 842 843 844 847 847 847 848 850 853 856 859 862 864 865 867 868 870 872 873 874 875 876 877 878 879 879 880 881 881 882 883 884 883 883 883 883 884
794 797 808 826 837 834 831 832 834 838 838 838 840 847 845 845 845 845 848 851 854 857 860 862 864 866 867 869 870 872 873 875 876 876 878 878 879 880 880 881 882 883 883 884 884 884 885 885 885
794 803 827 837 837 833 830 830 832 836 836 839 839 849 848 845 845 846 848 852 854 857 860 863 864 866 868 869 870 872 874 875 877 877 878 879 879 880 881 882 883 884 884 885 885 885 885 886 886
803 808 833 841 839 832 830 829 830 834 836 839 841 844 847 845 845 847 850 853 856 857 860 863 865 866 868 869 871 872 874 875 876 877 878 878 879 880 880 881 882 883 884 884 885 885 885 885 886
806 818 834 840 839 832 829 827 830 834 836 836 836 845 845 845 845 847 850 853 856 859 861 863 865 867 868 870 871 872 874 875 876 876 877 877 878 879 880 881 881 883 883 884 884 884 885 885 885
807 816 834 832 836 833 828 826 825 828 835 834 834 843 845 841 845 848 851 854 856 859 861 863 865 866 868 870 871 872 873 874 875 875 876 877 878 879 880 881 881 882 883 883 883 884 884 884 884
803 824 836 831 831 825 825 826 827 826 832 834 834 834 834 837 844 848 851 853 855 857 859 862 864 866 868 869 870 872 873 874 875 875 875 876 877 878 878 879 880 881 882 882 882 882 883 883 883
812 825 824 817 817 822 823 821 826 827 834 835 834 834 834 838 842 846 848 850 852 854 857 860 862 864 866 868 869 870 872 873 874 875 874 875 875 876 877 878 879 880 880 881 881 881 881 881 881
814 823 816 815 814 816 821 824 823 828 836 830 831 832 835 837 840 843 846 848 849 853 855 857 860 862 864 866 868 869 870 871 872 873 873 874 874 875 876 877 878 879 879 879 880 880 880 880 880
819 819 816 817 816 818 821 821 825 823 822 822 825 829 832 837 839 839 843 846 849 852 854 856 858 860 862 864 865 867 868 870 870 871 871 872 872 873 874 875 876 877 877 878 878 878 878 878 878
817 821 818 819 819 821 820 822 823 824 820 821 823 829 833 835 838 840 842 846 848 850 852 855 857 858 859 861 863 864 865 866 868 869 869 870 870 871 872 873 874 875 876 876 876 876 876 876 876
821 824 822 819 822 823 823 824 822 821 822 824 824 827 831 833 836 839 842 843 845 848 849 852 854 855 857 858 860 861 862 863 864 865 866 867 868 869 870 871 872 873 873 873 874 874 874 874 873
822 824 823 824 823 825 822 828 829 823 824 826 826 828 830 832 835 835 837 840 842 844 847 848 850 852 853 855 857 858 859 860 860 861 862 863 864 865 867 868 869 870 870 870 871 871 871 871 870
830 834 836 827 824 824 822 837 823 824 824 827 829 831 831 831 833 835 837 839 841 842 844 846 847 849 849 851 853 854 855 856 856 857 857 858 859 861 863 864 865 866 867 868 868 868 868 867 866
842 848 841 831 829 826 826 833 825 825 825 827 830 831 830 831 831 832 833 835 837 838 840 841 842 844 845 847 849 850 852 852 853 853 853 853 855 856 858 859 861 862 863 864 864 864 864 863 862
841 841 843 837 835 833 836 832 826 827 828 829 831 831 832 831 825 826 828 830 832 833 834 836 838 840 842 844 846 847 848 848 848 848 849 849 850 852 853 855 857 859 860 861 861 861 861 860 859
830 836 840 840 836 835 839 840 830 830 829 831 830 830 830 829 820 822 824 826 827 828 829 830 833 836 839 841 842 843 844 844 844 844 845 845 846 848 849 851 854 855 856 857 858 859 859 858 857
833 839 843 841 839 837 843 841 836 832 828 826 825 825 824 823 818 817 819 820 820 821 823 826 829 832 835 837 839 839 841 841 840 841 842 842 843 844 846 848 850 852 853 854 855 857 857 856 856
836 839 844 837 842 845 846 842 835 825 827 823 821 817 815 815 813 812 814 814 816 817 819 822 825 828 830 833 835 836 837 838 838 839 840 840 841 843 844 845 847 849 851 852 852 853 854 854 855
839 836 835 839 841 851 852 851 839 827 826 823 816 813 811 810 809 808 809 809 810 811 815 819 821 824 826 829 830 831 833 835 837 837 838 839 840 841 842 844 845 847 848 849 850 851 851 851 852
830 833 836 840 850 850 858 857 837 832 822 814 808 808 805 805 807 804 804 802 803 806 810 813 818 820 823 825 827 829 831 833 834 836 837 838 839 840 841 843 844 846 847 848 848 848 849 849 849
832 838 846 855 857 873 859 852 835 824 817 808 804 802 803 802 801 800 798 799 798 800 805 810 814 817 819 821 824 826 827 829 831 833 834 836 837 839 840 841 843 844 844 845 845 845 845 846 846
830 836 867 865 874 871 865 858 805 808 808 805 799 802 803 800 798 796 796 796 797 799 801 806 810 813 815 817 820 823 825 827 829 830 832 833 834 836 838 840 841 842 842 842 843 843 844 844 845
833 830 846 851 857 855 863 847 814 809 807 803 803 803 801 799 796 794 794 794 794 797 801 803 806 809 812 815 818 820 824 826 828 830 831 833 834 835 836 837 838 839 840 841 841 842 843 844 844
828 831 833 859 904 878 853 837 815 806 801 799 799 799 797 795 794 793 791 791 792 794 798 802 806 809 812 815 817 818 820 823 826 828 830 831 832 833 834 835 836 837 838 839 840 842 842 843 844
816 820 839 869 884 877 839 836 816 798 794 795 797 799 796 794 793 792 791 790 790 793 797 801 804 807 810 813 816 818 820 822 824 826 828 829 829 830 831 833 834 835 837 838 839 839 841 841 842
820 823 824 833 849 852 861 823 812 800 798 799 799 798 796 794 792 791 790 790 790 792 794 797 800 803 806 810 812 814 816 818 821 823 824 825 827 827 828 830 831 833 835 836 837 838 839 840 840
808 810 816 833 848 846 841 812 794 798 797 796 797 792 790 789 790 789 790 788 788 790 791 793 796 799 803 805 808 810 812 814 817 819 821 822 823 825 826 827 829 831 832 834 835 835 836 837 838